Location: Misciano
(43.5000°N, 11.9500°E)
Time: 00:12:58
(UTC+00:00)

Meteor 1-19 Rocket - Pass Details

Date: 13 August 2020
Orbit: 811 x 924 km, 81.2° (Epoch: 23 September)

Event Time Altitude Azimuth Distance (km) Brightness Sun altitude
Rises 19:58:13 0° 354° (N) 3,344 8.0 -16.5°
Reaches altitude 10° 20:00:41 10° 360° (N) 2,411 7.1 -16.9°
Maximum altitude 20:05:57 50° 75° (ENE) 1,045 4.4 -17.6°
Enters shadow 20:08:14 31° 132° (SE) 1,407 4.8 -17.9°
